User: anonymous   Login
Location: Unspecified
(0.0000°N, 0.0000°E)
Time: 00:04:02
(UTC+00:00)
Language:

GLOBAL-4 - Orbit

View from above orbital plane
View from above orbital plane
View from above satellite
View from above satellite

Ground track
Ground track

The orbit is defined by the following mean orbital elements,

1 44499U          26145.32907191 +.00000000 +00000-0 +53406-3 0 00004
2 44499  45.0080   8.0661 0005147 202.5235 157.5436 15.61941653    08
Epoch (UTC): 25 May 2026 07:53:51
Eccentricity: 0.0005147
inclination: 45.0080°
perigee height: 379 km
apogee height: 386 km
right ascension of ascending node: 8.0661°
argument of perigee: 202.5235°
revolutions per day: 15.61941653
mean anomaly at epoch: 157.5436°

The dashed part of the orbit path shows where the satellite is in the earth's shadow,  

DLR